Погода в Сеймчане

Погода в Сеймчане : погода сейчас, прогноз погоды и архив. Всё, что Вы хотите узнать о погоде в Сеймчане!

Хотите узнать прогноз погоды в Сеймчане? Тогда Вам сюда: Погода в Сеймчане

Поиск расширенной информации на нашем сайте:

Другие новости

Новости СМИ2

Главная страница сайта

Новости сайта

02.10.2013

Напоминаем, что на нашем новом сайте вы можете получить высокодетализированные прогнозы погоды по пунктам России, СНГ и мира (включающие важные для авиации метеовеличины, такие как направление и скорость ветра, видимость, явления погоды, количество и форма облачности, нижняя и верхняя граница облачности), а также ознакомиться с разнообразными материалами по авиационной метеорологии и подборкой полезных ссылок на эту тему.

Сайт Метеоцентр.Азия посвящён разработке технологий оптимизации авиаметеорологического обслуживания, включая проектирование и перспективное создание нескольких автоматизированных авиаметеорологических систем:
- система выпуска высокодетальных прогностических карт явлений погоды для нижнего воздушного пространства по России и ближнему зарубежью;
- система верификации прогнозов TAF (выпускаемых синоптиками официальных АМСГ РФ и ближнего зарубежья) и AUTOTAF (выпускаемых сайтом Метеоцентр.Азия) - выявление ошибок, онлайн-сопоставление с фактической погодой METAR, автоматическое внесение коррективов в прогнозы при резком отклонении фактической погоды от прогноза, подсчёт оправдываемости прогнозов по элементам и в целом;
- система обработки, анализа и отображения авиаметеорологической информации для применения провайдерами метеорологической информации.


Погода в Сеймчане - сегодня

Время (UTC), дата Ветер
(°,м/с) 
Видим.   Явления Облачность Т
(°С)
Тd
(°С)
f(%) Тe
(°С)
Pmin
(гПа)
dP
(гПа)
Po
(мм)
O2
(г/м3)
Тmin Tmax R s Состояние
почвы
00 24.05.17 250 (З) 20000 м    4/4 1000 м 
[Cu med, cong]
+11.6 -3 36 +13  1012.8  -1.2  741  287           
03 24.05.17 180 (Ю) 20000 м    8/8 1000 м кучево-дожд. 
[Cb calv]
+12.6 -4.3 30 +12  1011.5  -1.2  740  285           
06 24.05.17 180 (Ю) 4{10}  20000 м    5/3 1000 м средняя 
[Cu med, cong|Ac trans]
+13 -7.2 24 +13  1010.4  -1.1  739  285           
09 24.05.17 180 (Ю) 20000 м    3/0 средняя 
[Ac trans]
+10.7 -6.5 29 +10  1010  -0.5  739  287    +13.8       
12 24.05.17 тихо ()   20000 м    ясно 
+2.4 -4.8 59 +2  1010.4  -0.4  738  295           
15 24.05.17 320 (СЗ) 20000 м    ясно 
-2.8 -5.2 84 -2  1009.9  -1  738  301           
18 24.05.17 тихо ()   20000 м    ясно 
-1.5 -4.5 80 -2  1008.4  -1.3  737  299           
21 24.05.17 190 (Ю) 20000 м    ясно 
+7.4 -2.5 49 +7  1005.5  -2  735  289  -4.1        влажная 
00 25.05.17 180 (Ю) 20000 м    ясно 
+14.9 -1.3 33 +15  1001.9  -2.9  733  280           
03 25.05.17 200 (Ю) 20000 м    1/1 1000 м 
[Cu hum]
+17.8 -1.4 27 +18  999.2  -2.4  731  277           
06 25.05.17 200 (Ю) 4{10}  20000 м    3/1 1000 м верхняя 
[Cu hum|Ci fib]
+19 -2.2 24 +19  997.1  -1.9  730  275           
09 25.05.17 190 (Ю) 3{11}  20000 м    9/3 1000 м средняя, верхняя 
[Sc diur, vesp|Ac trans|Ci fib]
+16.1 -2.6 28 +16  996.9  -0.4  729  278    +19.8       
12 25.05.17 190 (Ю) 20000 м    9/3 1000 м средняя, верхняя 
[Sc diur, vesp|Ac trans|Ci fib]
+12.4 -2.6 35 +13  998.2  0.9  730  282           
15 25.05.17 200 (Ю) 20000 м    9/4 1000 м средняя 
[Sc|Ac trans]
+9.7 -0.7 48 +9  998.4  730  284           
18 25.05.17 200 (Ю) 5-10{12}  20000 м    9/6 1000 м кучево-дожд., средняя 
[Cb calv|Ac trans]
+10.1 -2.9 40 +9  997.8  -0.6  730  284           
21 25.05.17 210 (ЮЗ) 4{14}  20000 м    9/6 1000 м кучево-дожд., средняя 
[Cb calv|Ac trans]
+8.8 -0.2 53 +8  998.4  0.5  730  285  +8.3        влажная 
00 26.05.17 230 (ЮЗ) 6-11{13}  20000 м    9/8 1000 м средняя 
[Sc|Ac trans]
+10 -2 43 +8  997.4  -0.9  729  284           
03 26.05.17 210 (ЮЗ) 5{12}  20000 м    9/8 1000 м средняя 
[Sc|Ac trans]
+11.2 -2.2 39 +10  996.5  -0.7  729  282           
06 26.05.17 220 (ЮЗ) 6{11}  20000 м    9/6 1000 м средняя 
[Sc|Ac trans]
+12.2 -1.4 39 +11  995.8  -0.7  728  281           
09 26.05.17 200 (Ю) 20000 м    9/8 1000 м средняя 
[Sc|Ac trans]
+11 -0.3 46 +11  996.2  0.3  729  282    +13.9       
12 26.05.17 200 (Ю) 20000 м    9/8 1000 м средняя 
[Sc|Ac trans]
+8.3 -0.1 55 +8  997.1  0.7  729  285           
15 26.05.17 360 (С) 20000 м    9/6 1000 м средняя 
[Sc|Ac trans]
+6.9 +2.5 74 +7  997.8  0.5  730  286           
18 26.05.17 020 (С) 10 км  слаб. ливневой дождь  10/8 1000 м кучево-дожд., средняя 
[Cb calv|Ac und]
+4.9 +2.8 86 +6  999.2  1.1  730  289           
21 26.05.17 030 (СВ) 10 км  слаб. ливневой дождь  10/10 300 м кучево-дожд. 
[Cb calv]
+4.3 +1.6 83 +5  1000.6  1.3  731  290  +3.2    0.7    влажная 
06 27.05.17 070 (В) 20000 м    8/5 1000 м кучево-дожд., средняя 
[Cb calv|Ac trans]
+9.6 +1.2 56 +9  1002.6  0.4  733  285           
Время (UTC), дата Ветер
(°,м/с) 
Видим.   Явления Облачность Т
(°С)
Тd
(°С)
f(%) Тe
(°С)
Pmin
(гПа)
dP
(гПа)
Po
(мм)
O2
(г/м3)
Тmin Tmax R s Состояние
почвы

Для получения пояснительной информации подведите курсор к названию столбца.

ПОГОДА в Сеймчане - архив

Всё, что Вы хотите узнать о погоде в Сеймчане - удобно и подробно!

Выберите нужную дату (начиная с 1 января 2015* года) и нажмите кнопку "Найти".
Будут отображены архивные сводки погоды по пункту Сеймчан, начиная с указанной даты.


Отображать данные в формате CSV (для использования в таблицах Excel)


Внимание! Наш архив погоды предназначен исключительно для личного некоммерческого использования в познавательных целях. Если Вам необходимы официальные справки о состоянии погоды (для производственных, юридических, коммерческих и т.п. целей), обращайтесь в органы Росгидромета.

*Примечание: данная дата относится к архиву по метеостанциям СССР (Россия, СНГ, Балтия).
Архив по метеостанциям Зарубежной Европы и Азии (кроме Китая) хранится 10 дней, по другим регионам земного шара (Китай, Африка, Америка, Австралия, Океания) - 1 день.

Сеймчан - район местоположения метеостанции


Название, широта, долгота, высота метеостанции:
Сеймчан 62.9°ш. 152.4°д. 205 м над ур. моря [Российская Федерация]

Дополнительная информация

В oтличие oт бoльшинства пoгoдных сайтoв мы публикуем пoдрoбную метеoинфoрмацию в детальнoм прoфессиoнальнoм фoрмате.

Характеристики температуры и влажнoсти вoздуха измеряются на высoте 2 м в тени вдали oт зданий и деревьев.
Скoрoсть ветра измеряется на высoте 10 м (на урoвне рoста челoвека скoрoсть ветра ниже в 1.5-2 раза). Если метеoстанция нахoдится в гoрoде или в лесу, тo скoрoсть ветра занижена на 2-4 м/с пo сравнению с oткрытым местoм. Скoрoсть ветра над акватoриями крупных рек и oзёр, а также на вершинах хoлмoв на 2-5 м/с выше, чем в oбычных услoвиях.
Атмoсфернoе давление в разных тoчках местнoсти мoжет значительнo oтличаться oт давления на метеoстанции, в зависимoсти oт услoвий рельефа (при пoдъёме на 10 м давление пoнижается примернo на 1 мм рт.ст.).